Flag for U.S.A. Weather past 2 weeks in Huntington Beach, California, U.S.A.

Now
89 °F

Sunny.


Feels Like: 88 °F
Forecast: 64 / 84 °F
Wind: 9 mph from Southwest

Location: John Wayne Airport-Orange County Airport

Current Time: Aug 27, 2014 at 1:59:49 PM

Latest Report: Aug 27, 2014 at 12:53 PM


Visibility: 10 mi

Pressure: 30.00 "Hg

Humidity: 35%

Dew point: 58 °F

Location of Huntington BeachLocation

Historic Weather in Huntington Beach — Graph

°F

Huntington Beach temperature yesterday

Maximum temperature yesterday: 83 °F (at 11:53 AM)
Minimum temperature yesterday: 70 °F (at 1:53 AM)
Average temperature yesterday: 76 °F

Past Weeks' High & Low Weather Summary

 TemperatureHumidityPressure
High92 °F (Aug 27, 11:53 AM)82% (Aug 15, 5:53 AM)30.03 "Hg (Aug 15, 5:53 AM)
Low68 °F (Aug 14, 2:53 AM)29% (Aug 15, 3:53 PM)29.79 "Hg (Aug 18, 4:53 PM)
Average75 °F63%29.92 "Hg
* Reported Aug 12 11:53 AM — Aug 27 11:53 AM, Huntington Beach, Weather by CustomWeather, © 2014

Note: Actual official high and low records may vary slightly from our data, if they occured in-between our weather recording intervals... More about our weather records

Advertising

Huntington Beach weather history for previous 24 hours

 ConditionsComfort  
Time TempWeatherWind HumidityBarometerVisibility
11:53 AM
Aug 27
92 °FSunny.5 mph32%30.01 "Hg10 mi
10:53 AM86 °FSunny.No wind37%30.02 "Hg10 mi
9:53 AM82 °FSunny.3 mph46%30.03 "Hg10 mi
8:53 AM77 °FSunny.No wind56%30.02 "Hg10 mi
7:53 AM74 °FPassing clouds.No wind67%30.01 "Hg8 mi
6:53 AM70 °FPassing clouds.No wind76%30.01 "Hg8 mi
5:53 AM70 °FClear.No wind79%30.00 "Hg7 mi
4:53 AM70 °FClear.No wind79%29.99 "Hg6 mi
3:53 AM70 °FClear.No wind79%29.99 "Hg5 mi
2:53 AM70 °FClear.No wind79%29.99 "Hg6 mi
1:53 AM71 °FClear.3 mph76%29.98 "Hg6 mi
12:53 AM72 °FClear.No wind73%29.97 "Hg10 mi
11:53 PM
Aug 26
72 °FClear.No wind73%29.97 "Hg10 mi
10:53 PM73 °FPassing clouds.3 mph69%29.97 "Hg10 mi
9:53 PM74 °FPassing clouds.3 mph67%29.97 "Hg10 mi
8:53 PM74 °FPassing clouds.No wind67%29.95 "Hg10 mi
7:53 PM75 °FSunny.6 mph62%29.93 "Hg10 mi
6:53 PM78 °FSunny.8 mph56%29.92 "Hg10 mi
5:53 PM80 °FSunny.5 mph49%29.91 "Hg10 mi
4:53 PM81 °FPassing clouds.7 mph47%29.92 "Hg10 mi
3:53 PM82 °FPassing clouds.6 mph48%29.93 "Hg10 mi
2:53 PM82 °FPassing clouds.8 mph44%29.94 "Hg10 mi
1:53 PM82 °FPassing clouds.8 mph46%29.95 "Hg10 mi
Weather by CustomWeather, © 2014

See weather overviewHow to use our weather pages